Meteo Giornale » Osservazioni meteo Stati Uniti (USA) » Los Angeles

ore: 16:12 - Osservazioni Meteo Los Angeles
Lat. 33° 56' N Lon. 118° 23' W Alt. 38 metri s.l.m.

molto_nuvoloso America/Los_Angeles

21 °C

Molto Nuvoloso

Temp. 24 Ore

17 °C

21 °C

Ovest/Sud-Ovest

24 Km/h

Dew point 15 °C

Umidità 68 %

Visibilità  10 Km

Il sole sorge alle ore 05:40

Il sole tramonta alle ore 20:08

Data e Ora Cielo e Fenomeni T °C DP °C Um. % Pres. hPa Vis. km Vento km/h
Oggi h: 16:12 molto_nuvoloso Molto Nuvoloso 21 15 68 1011 10 O/SO 24
Oggi h: 15:53 nuvoloso Nuvoloso 21 15 68 1011 10 O 20.3
Oggi h: 15:20 nuvoloso Nuvoloso 21 14 64 1011 10 O/SO 18.5
Oggi h: 14:53 coperto Coperto 21 14 64 1011 10 O/SO 18.5
Oggi h: 13:53 coperto Coperto 20 14 68 1012 10 O 16.7
Oggi h: 13:08 coperto Coperto 19 14 72 1012 10 O/SO 16.7
Oggi h: 12:53 coperto Coperto 19 14 72 1012 10 O 18.5
Oggi h: 11:53 coperto Coperto 18 15 82 1012 10 SO 7.4
Oggi h: 10:53 coperto Coperto 18 15 82 1012 10 O/SO 13
Oggi h: 10:27 coperto Coperto 18 15 82 1012 10 O 9.3
Oggi h: 09:53 foschia Foschia 17 15 88 1012 10 O 13
Oggi h: 08:53 coperto_pioggia Pioviggine Leggera Foschia 17 15 88 1012 10 O 13
Oggi h: 07:53 coperto Coperto 17 15 88 1012 13 O 14.8
Oggi h: 07:42 foschia Foschia 17 14 82 1012 10 O 16.7
Oggi h: 06:53 coperto Coperto 18 14 77 1011 11 N 7.4
Oggi h: 06:26 coperto Coperto 18 14 77 1011 13 N 0
Oggi h: 05:53 coperto Coperto 18 14 77 1011 10 N 7.4
Oggi h: 04:53 coperto Coperto 18 14 77 1011 10 N/NO 7.4
Oggi h: 03:53 coperto Coperto 18 13 72 1011 10 NO 9.3
Oggi h: 02:53 coperto Coperto 17 13 77 1011 10 O/NO 7.4
Oggi h: 02:21 coperto Coperto 17 14 82 1012 10 NO 7.4
Oggi h: 01:53 coperto Coperto 17 14 82 1012 10 N 5.5
Oggi h: 00:53 coperto Coperto 18 14 77 1012 10 N 11.1
Ieri h: 23:53 molto_nuvoloso Molto Nuvoloso 18 13 72 1013 10 O/NO 11.1
Ieri h: 22:53 molto_nuvoloso Molto Nuvoloso 18 14 77 1013 10 O/NO 11.1
Ieri h: 21:53 molto_nuvoloso Molto Nuvoloso 18 14 77 1013 10 O 16.7
Ieri h: 20:53 nuvoloso Nuvoloso 17 14 82 1013 10 O 18.5
Ieri h: 19:53 nuvoloso Nuvoloso 18 14 77 1012 10 O 20.3
Ieri h: 18:53 nuvoloso Nuvoloso 19 14 72 1012 10 O 24
Ieri h: 17:53 molto_nuvoloso Molto Nuvoloso 20 14 68 1012 10 O 27.8
Ieri h: 17:16 nuvoloso Nuvoloso 21 14 64 1012 10 O 24
Ieri h: 16:53 molto_nuvoloso Molto Nuvoloso 21 14 64 1012 10 O 25.9